Terminal Aerodrome Forecast
Issued by NWS Charleston, WV

Current Version | Previous Version | Graphics & Text | Print | Product List | Glossary On
Versions: 1 2 3 4 5 6 7 8 9 10 11 12 13 14 15 16 17 18 19 20 21 22 23 24 25 26 27
000
FTUS41 KRLX 211700
TAFCRW
TAF
KCRW 211735Z 2118/2218 VRB03KT P6SM SCT035
     FM220300 00000KT 4SM BR SCT060
     FM220400 00000KT 2SM BR SCT060
     FM220800 00000KT 1/4SM FG OVC001
     FM221300 VRB03KT 3SM BR SCT040
     FM221400 VRB03KT P6SM SCT040=

USA.gov is the U.S. government's official web portal to all federal, state and local government web resources and services.